Voltar ao catálogo

STARLINK-34167

AtivoComunicaçõesVLEO
NORAD 64228·PAYLOAD·🇺🇸 United States

Lançado May 31, 2025 de Vandenberg Space Force Base

Loading…

Próximas Passagens (próximas 24 horas)

TLE

AtualizadoSource: CelesTrak SupGP

Época: Sep 15, 2026, 02:48 UTC

1 64228C 25117AB  26258.11715278 -.00043940  00000+0 -12980-2 0  2584
2 64228  53.1582 235.1354 0001540  89.3010 235.8808 15.34415952    16

Acompanhe STARLINK-34167 em tempo real com AllMySat

Download on the App Store